Regional Weather Roundup
Issued by NWS

Home | Current Version | Previous Version | Graphics & Text | Print | Product List | Glossary On
Versions: 1 2 3 4 5 6 7 8 9 10 11 12 13 14 15 16 17 18 19 20 21 22 23 24 25 26 27 28 29 30 31 32 33 34 35 36 37 38 39 40 41 42 43 44 45 46 47 48 49 50
000
ASUS43 KFSD 231802
RWRSD

WEATHER ROUNDUP FOR SOUTH DAKOTA
NATIONAL WEATHER SERVICE SIOUX FALLS SD
100 PM CDT WED APR 23 2014

NOTE: "FAIR" INDICATES FEW OR NO CLOUDS BELOW 12,000 FEET WITH NO
SIGNIFICANT WEATHER AND/OR OBSTRUCTIONS TO VISIBILITY.


SDZ001>005-009-010-012>017-231900-
NORTHWEST AND NORTH CENTRAL SOUTH DAKOTA

CITY           SKY/WX    TMP DP  RH WIND       PRES   REMARKS
BUFFALO          N/A     51  41  68 NW25G36   29.50R
FAITH            N/A     57  43  59 S9        29.51R
MOBRIDGE       CLOUDY    55  40  56 SE24      29.54R
$$

SDZ012>016-024>037-041>051-057-063-072>074-231900-
SOUTHWEST AND SOUTH CENTRAL SOUTH DAKOTA

CITY           SKY/WX    TMP DP  RH WIND       PRES   REMARKS
RAPID CTY ARPT CLOUDY    64  45  49 N20       29.53R
PIERRE         CLOUDY    65  41  41 SE22G29   29.50F
CUSTER         PTSUNNY   52  24  33 W22G36    29.57F
ELLSWORTH AFB  CLOUDY    59  45  59 NW20G26   29.54R
PHILIP         CLOUDY    65  50  58 NE9       29.47F
PINE RIDGE     CLOUDY    64  30  27 W16G25    29.59R
WINNER         FAIR      72  42  34 S17       29.51S
$$

SDZ004>011-016>023-039-040-231900-
NORTHEAST SOUTH DAKOTA

CITY           SKY/WX    TMP DP  RH WIND       PRES   REMARKS
ABERDEEN       PTSUNNY   51  38  60 SE29G41   29.67S
WATERTOWN      CLOUDY    45  35  68 SE18G36   29.73F
SISSETON         N/A     42  39  89 SE24G36   29.77F
$$

SDZ017-020-022-023-036>040-048>070-231900-
SOUTHEAST SOUTH DAKOTA

CITY           SKY/WX    TMP DP  RH WIND       PRES   REMARKS
SIOUX FALLS    NOT AVBL
HURON          PTSUNNY   62  37  39 SE26G39   29.62F
CHAMBERLAIN      N/A     71  42  35 S21G36    29.53F
MITCHELL       PTSUNNY   66  41  40 SE29G43   29.62F
YANKTON        FAIR      64  39  39 SE28G44   29.67S
$$

ABBREVIATIONS USED IN REMARKS
   TC - TEMPERATURE IN CELSIUS
  WCI - WIND CHILL INDEX
   HX - HEAT INDEX
  VSB - VISIBILITY




USA.gov is the U.S. government's official web portal to all federal, state and local government web resources and services.